Location: Dal�� Lhota
(48.7500°N, 14.0167°E)
Time: 07:43:13
(UTC+00:00)

Transit 2A - Pass Details

Date: 01 August 2021
Orbit: 594 x 964 km, 66.7° (Epoch: 24 September)

Event Time Altitude Azimuth Distance (km) Brightness Sun altitude
Rises 15:38:44 0° 308° (NW) 3,303 9.9 28.3°
Reaches altitude 10° 15:42:26 10° 282° (WNW) 2,452 10.1 27.7°
Maximum altitude 15:44:58 13° 255° (WSW) 2,277 10.3 27.3°
Drops below altitude 10° 15:47:36 10° 229° (SW) 2,549 9.6 26.9°
Sets 15:51:37 0° 204° (SSW) 3,551 9.8 26.2°
